Previsão horária em Çaykara

Hoje, 27 Julho, Terça-feira

Tempo Temperatura Precipitação Vento Pressão Humidade
00:00 +15°C° 0.1 mm 1 m/s 633 mmHg 88%
01:00 +15°C° 0 mm 1 m/s 633 mmHg 88%
02:00 +15°C° 0 mm 1 m/s 632 mmHg 88%
03:00 +15°C° 0 mm 1 m/s 632 mmHg 88%
04:00 +15°C° 0 mm 1 m/s 632 mmHg 88%
05:00 +15°C° 0 mm 1 m/s 632 mmHg 88%
06:00 +15°C° 0 mm 1 m/s 632 mmHg 88%
07:00 +16°C° 0.2 mm 1 m/s 633 mmHg 86%
08:00 +16°C° 0.2 mm 1 m/s 633 mmHg 83%
09:00 +18°C° 0.2 mm 1 m/s 633 mmHg 81%
10:00 +18°C° 0.4 mm 2 m/s 633 mmHg 80%
11:00 +18°C° 0.4 mm 2 m/s 633 mmHg 80%
12:00 +19°C° 0.4 mm 3 m/s 633 mmHg 79%
13:00 +18°C° 0.9 mm 3 m/s 633 mmHg 81%
14:00 +18°C° 0.9 mm 3 m/s 633 mmHg 82%
15:00 +18°C° 0.9 mm 3 m/s 633 mmHg 84%
16:00 +18°C° 0.4 mm 3 m/s 633 mmHg 85%
17:00 +17°C° 0.4 mm 2 m/s 633 mmHg 86%
18:00 +17°C° 0.4 mm 2 m/s 633 mmHg 86%
19:00 +16°C° 0 mm 2 m/s 632 mmHg 87%
20:00 +15°C° 0 mm 2 m/s 632 mmHg 88%
21:00 +14°C° 0 mm 2 m/s 632 mmHg 89%
22:00 +14°C° 0 mm 2 m/s 632 mmHg 88%
23:00 +14°C° 0 mm 2 m/s 632 mmHg 87%

Amanhã, 28 Julho, Quarta-feira

Tempo Temperatura Precipitação Vento Pressão Humidade
00:00 +14°C° 0 mm 2 m/s 632 mmHg 86%
01:00 +14°C° 0 mm 2 m/s 632 mmHg 86%
02:00 +14°C° 0 mm 2 m/s 632 mmHg 86%
03:00 +14°C° 0 mm 1 m/s 631 mmHg 86%
04:00 +14°C° 0.1 mm 1 m/s 632 mmHg 86%
05:00 +14°C° 0.1 mm 1 m/s 632 mmHg 86%
06:00 +14°C° 0.1 mm 1 m/s 632 mmHg 86%
07:00 +15°C° 0.1 mm 1 m/s 632 mmHg 83%
08:00 +16°C° 0.1 mm 1 m/s 632 mmHg 80%
09:00 +18°C° 0.1 mm 1 m/s 632 mmHg 77%
10:00 +17°C° 0.1 mm 2 m/s 632 mmHg 77%
11:00 +18°C° 0.1 mm 2 m/s 632 mmHg 77%
12:00 +18°C° 0.1 mm 2 m/s 632 mmHg 77%
13:00 +18°C° 0.2 mm 3 m/s 632 mmHg 79%
14:00 +18°C° 0.2 mm 3 m/s 632 mmHg 82%
15:00 +17°C° 0.2 mm 3 m/s 632 mmHg 85%
16:00 +17°C° 0.2 mm 3 m/s 632 mmHg 86%
17:00 +17°C° 0.2 mm 3 m/s 632 mmHg 86%
18:00 +16°C° 0.2 mm 3 m/s 632 mmHg 87%
19:00 +16°C° 0.1 mm 2 m/s 632 mmHg 88%
20:00 +15°C° 0.1 mm 2 m/s 632 mmHg 90%
21:00 +14°C° 0.1 mm 2 m/s 632 mmHg 92%
22:00 +14°C° 0 mm 2 m/s 632 mmHg 91%
23:00 +14°C° 0 mm 2 m/s 631 mmHg 90%

Depois de amanhã, 29 Julho, Quinta-feira

Tempo Temperatura Precipitação Vento Pressão Humidade
00:00 +13°C° 0 mm 2 m/s 631 mmHg 89%
01:00 +13°C° 0 mm 2 m/s 631 mmHg 89%
02:00 +13°C° 0 mm 2 m/s 631 mmHg 88%
03:00 +13°C° 0 mm 2 m/s 631 mmHg 88%
04:00 +13°C° 0 mm 2 m/s 631 mmHg 87%
05:00 +13°C° 0 mm 1 m/s 631 mmHg 87%
06:00 +13°C° 0 mm 1 m/s 631 mmHg 86%
07:00 +15°C° 0 mm 1 m/s 631 mmHg 82%
08:00 +16°C° 0 mm 1 m/s 632 mmHg 77%
09:00 +18°C° 0 mm 1 m/s 632 mmHg 73%
10:00 +18°C° 0 mm 2 m/s 632 mmHg 71%
11:00 +19°C° 0 mm 2 m/s 632 mmHg 70%
12:00 +19°C° 0 mm 2 m/s 632 mmHg 69%
13:00 +19°C° 0.1 mm 2 m/s 632 mmHg 72%
14:00 +19°C° 0.1 mm 2 m/s 632 mmHg 75%
15:00 +19°C° 0.1 mm 2 m/s 632 mmHg 79%
16:00 +18°C° 0.1 mm 2 m/s 632 mmHg 81%
17:00 +17°C° 0.1 mm 2 m/s 631 mmHg 83%
18:00 +17°C° 0.1 mm 2 m/s 631 mmHg 86%
19:00 +16°C° 0 mm 2 m/s 631 mmHg 87%
20:00 +16°C° 0 mm 2 m/s 631 mmHg 88%
21:00 +15°C° 0 mm 2 m/s 631 mmHg 89%
22:00 +15°C° 0 mm 2 m/s 631 mmHg 88%
23:00 +15°C° 0 mm 1 m/s 631 mmHg 87%

30 Julho, Sexta-feira

Tempo Temperatura Precipitação Vento Pressão Humidade
00:00 +14°C° 0 mm 1 m/s 631 mmHg 86%
01:00 +14°C° 0 mm 1 m/s 631 mmHg 86%
02:00 +14°C° 0 mm 1 m/s 630 mmHg 86%
03:00 +14°C° 0 mm 1 m/s 630 mmHg 87%
04:00 +14°C° 0 mm 1 m/s 630 mmHg 86%
05:00 +14°C° 0 mm 1 m/s 631 mmHg 85%
06:00 +15°C° 0 mm 1 m/s 631 mmHg 85%
07:00 +16°C° 0 mm 1 m/s 631 mmHg 80%
08:00 +18°C° 0 mm 1 m/s 631 mmHg 75%
09:00 +20°C° 0 mm 1 m/s 632 mmHg 70%
10:00 +19°C° 0 mm 2 m/s 632 mmHg 69%
11:00 +20°C° 0 mm 2 m/s 632 mmHg 67%
12:00 +21°C° 0 mm 3 m/s 632 mmHg 66%
13:00 +21°C° 0 mm 3 m/s 632 mmHg 69%
14:00 +20°C° 0 mm 2 m/s 632 mmHg 72%
15:00 +20°C° 0 mm 2 m/s 631 mmHg 74%
16:00 +19°C° 0.1 mm 2 m/s 631 mmHg 78%
17:00 +19°C° 0.1 mm 2 m/s 631 mmHg 81%
18:00 +18°C° 0.1 mm 2 m/s 631 mmHg 85%
19:00 +17°C° 0.1 mm 2 m/s 631 mmHg 86%
20:00 +18°C° 0.1 mm 1 m/s 631 mmHg 87%
21:00 +16°C° 0.1 mm 1 m/s 631 mmHg 88%
22:00 +16°C° 0 mm 1 m/s 631 mmHg 88%
23:00 +15°C° 0 mm 1 m/s 631 mmHg 88%

31 Julho, Sábado

Tempo Temperatura Precipitação Vento Pressão Humidade
00:00 +15°C° 0 mm 1 m/s 630 mmHg 87%
01:00 +15°C° 0 mm 1 m/s 630 mmHg 87%
02:00 +15°C° 0 mm 1 m/s 630 mmHg 88%
03:00 +14°C° 0 mm 1 m/s 630 mmHg 88%
04:00 +15°C° 0 mm 1 m/s 630 mmHg 87%
05:00 +15°C° 0 mm 1 m/s 630 mmHg 86%
06:00 +15°C° 0 mm 1 m/s 630 mmHg 86%
07:00 +16°C° 0 mm 1 m/s 630 mmHg 81%
08:00 +19°C° 0 mm 1 m/s 631 mmHg 77%
09:00 +20°C° 0 mm 1 m/s 631 mmHg 72%
10:00 +20°C° 0.1 mm 2 m/s 631 mmHg 72%
11:00 +20°C° 0.1 mm 2 m/s 631 mmHg 72%
12:00 +21°C° 0.1 mm 2 m/s 631 mmHg 72%
13:00 +20°C° 0.2 mm 2 m/s 631 mmHg 74%
14:00 +20°C° 0.2 mm 3 m/s 631 mmHg 76%
15:00 +20°C° 0.2 mm 3 m/s 630 mmHg 79%
16:00 +20°C° 0.1 mm 2 m/s 630 mmHg 82%
17:00 +19°C° 0.1 mm 2 m/s 630 mmHg 85%
18:00 +18°C° 0.1 mm 2 m/s 630 mmHg 88%
19:00 +19°C° 0.1 mm 1 m/s 630 mmHg 88%
20:00 +18°C° 0.1 mm 1 m/s 631 mmHg 88%
21:00 +16°C° 0.1 mm 1 m/s 631 mmHg 88%
22:00 +16°C° 0 mm 1 m/s 630 mmHg 88%
23:00 +16°C° 0 mm 1 m/s 630 mmHg 87%

1 Agosto, Domingo

Tempo Temperatura Precipitação Vento Pressão Humidade
00:00 +15°C° 0 mm 1 m/s 630 mmHg 87%
01:00 +15°C° 0 mm 1 m/s 630 mmHg 87%
02:00 +15°C° 0 mm 1 m/s 630 mmHg 86%
03:00 +15°C° 0 mm 1 m/s 630 mmHg 86%
04:00 +15°C° 0 mm 1 m/s 630 mmHg 85%
05:00 +15°C° 0 mm 1 m/s 630 mmHg 84%
06:00 +15°C° 0 mm 1 m/s 630 mmHg 84%
07:00 +18°C° 0 mm 1 m/s 631 mmHg 80%
08:00 +19°C° 0 mm 1 m/s 631 mmHg 76%
09:00 +21°C° 0 mm 1 m/s 631 mmHg 72%
10:00 +20°C° 0 mm 2 m/s 631 mmHg 71%
11:00 +21°C° 0 mm 2 m/s 632 mmHg 69%
12:00 +23°C° 0 mm 2 m/s 632 mmHg 68%
13:00 +21°C° 0.1 mm 2 m/s 631 mmHg 71%
14:00 +21°C° 0.1 mm 2 m/s 631 mmHg 74%
15:00 +21°C° 0.1 mm 3 m/s 631 mmHg 77%
16:00 +20°C° 0.1 mm 2 m/s 631 mmHg 80%
17:00 +19°C° 0.1 mm 2 m/s 631 mmHg 82%
18:00 +20°C° 0.1 mm 1 m/s 631 mmHg 85%
19:00 +19°C° 0 mm 1 m/s 631 mmHg 87%
20:00 +18°C° 0 mm 1 m/s 631 mmHg 89%
21:00 +18°C° 0 mm 1 m/s 631 mmHg 91%
22:00 +16°C° 0 mm 1 m/s 631 mmHg 90%
23:00 +16°C° 0 mm 1 m/s 631 mmHg 90%
Mostrar mais

Necessitamos do seu Consentimento

A Meteoprog e os seus Fornecedores de Serviços podem armazenar e aceder a dados pessoais como cookies, identificadores do dispositivo ou outras tecnologias semelhantes existentes no seu dispositivo e processar estes dados para personalizar conteúdos e anúncios, assim como funcionalidades nas redes sociais e análise de tráfego.

  • Armazenar e/ou aceder a informações no seu dispositivo

    Os cookies, identificadores do dispositivo ou outras informações podem ser armazenados ou acedidos no seu dispositivo, para os fins acima indicados.

  • Anúncios e conteúdos personalizados, medição de anúncios e conteúdos, dados sobre o público-alvo e desenvolvimento de produtos

    Os anúncios e os conteúdos podem ser personalizados com base num perfil. Podem ser adicionados dados adicionais para uma maior personalização dos anúncios e dos conteúdos. A eficácia dos anúncios e dos conteúdos pode ser medida. Podem ser obtidas informações sobre o público que visualizou os anúncios e os conteúdos. Estes dados podem ser usados para desenvolver ou melhorar sistemas, softwares ou a experiência do utilizador.

Ao clicar em "Eu concordo”, permitirá o uso de cookies, identificadores do dispositivo e web beacons mencionados ou outras tecnologias semelhantes. As configurações do navegador do seu dispositivo podem ser alteradas.

Para certos fins, podem ser invocados interesses legítimos ao invés de consentimento. Pode ler mais informação sobre este assunto na nossa Política de Privacidade e Cookies.